Time,TemperatureF,DewpointF,PressureIn,WindDirection,WindDirectionDegrees,WindSpeedMPH,WindSpeedGustMPH,Humidity,HourlyPrecipIn,Conditions,Clouds,dailyrainin,SoftwareType,DateUTC
2013-10-14 00:01:00,50.7,49.0,30.41,SE,135,0.0,0.0,94,0.00,,,0.00,Rainwise IP-100,2013-10-14 04:01:00,
2013-10-14 00:02:00,50.7,48.0,30.41,SE,135,0.0,0.0,93,0.00,,,0.00,Rainwise IP-100,2013-10-14 04:02:00,
2013-10-14 00:03:00,50.8,49.0,30.41,SE,135,0.0,0.0,94,0.00,,,0.00,Rainwise IP-100,2013-10-14 04:03:00,
2013-10-14 00:04:00,50.7,49.0,30.41,SE,135,0.0,0.0,94,0.00,,,0.00,Rainwise IP-100,2013-10-14 04:04:00,
2013-10-14 00:05:00,50.7,49.0,30.41,SE,135,0.0,0.0,94,0.00,,,0.00,Rainwise IP-100,2013-10-14 04:05:00,
2013-10-14 00:10:00,50.8,49.0,30.41,SE,135,0.0,0.0,94,0.00,,,0.00,Rainwise IP-100,2013-10-14 04:10:00,
2013-10-14 00:16:00,50.8,49.0,30.41,SE,135,0.0,0.0,94,0.00,,,0.00,Rainwise IP-100,2013-10-14 04:16:00,
2013-10-14 00:21:00,50.7,49.0,30.41,SE,135,0.0,0.0,95,0.00,,,0.00,Rainwise IP-100,2013-10-14 04:21:00,
2013-10-14 00:26:00,50.6,49.0,30.41,SE,135,0.0,0.0,95,0.00,,,0.00,Rainwise IP-100,2013-10-14 04:26:00,
2013-10-14 00:31:00,50.4,49.0,30.41,SE,135,0.0,0.0,95,0.00,,,0.00,Rainwise IP-100,2013-10-14 04:31:00,
2013-10-14 00:36:00,50.3,49.0,30.41,SE,135,0.0,0.0,96,0.00,,,0.00,Rainwise IP-100,2013-10-14 04:36:00,
2013-10-14 00:41:00,50.3,49.0,30.41,SE,135,0.0,0.0,96,0.00,,,0.00,Rainwise IP-100,2013-10-14 04:41:00,
2013-10-14 00:46:00,50.4,50.0,30.41,SE,135,0.0,0.0,96,0.00,,,0.00,Rainwise IP-100,2013-10-14 04:46:00,
2013-10-14 00:51:00,50.5,50.0,30.41,SE,135,0.0,0.0,96,0.00,,,0.00,Rainwise IP-100,2013-10-14 04:51:00,
2013-10-14 00:56:00,50.6,50.0,30.41,SE,135,0.0,0.0,96,0.00,,,0.00,Rainwise IP-100,2013-10-14 04:56:00,
2013-10-14 01:01:00,50.7,50.0,30.41,SE,135,0.0,0.0,96,0.00,,,0.00,Rainwise IP-100,2013-10-14 05:01:00,
2013-10-14 01:06:00,50.9,50.0,30.41,SE,135,0.0,0.0,97,0.00,,,0.00,Rainwise IP-100,2013-10-14 05:06:00,
2013-10-14 01:11:00,50.9,50.0,30.41,SE,135,0.0,2.0,96,0.00,,,0.00,Rainwise IP-100,2013-10-14 05:11:00,
2013-10-14 01:17:00,50.9,50.0,30.41,SE,135,0.0,2.0,96,0.00,,,0.00,Rainwise IP-100,2013-10-14 05:17:00,
2013-10-14 01:22:00,50.9,50.0,30.41,SE,135,0.0,0.0,96,0.00,,,0.00,Rainwise IP-100,2013-10-14 05:22:00,
2013-10-14 01:27:00,51.0,50.0,30.41,SE,135,0.0,0.0,95,0.00,,,0.00,Rainwise IP-100,2013-10-14 05:27:00,
2013-10-14 01:33:00,51.1,50.0,30.41,SE,135,0.0,0.0,96,0.00,,,0.00,Rainwise IP-100,2013-10-14 05:33:00,
2013-10-14 01:38:00,51.1,50.0,30.41,SE,135,0.0,0.0,94,0.00,,,0.00,Rainwise IP-100,2013-10-14 05:38:00,
2013-10-14 01:43:00,51.2,50.0,30.41,SE,135,0.0,0.0,95,0.00,,,0.00,Rainwise IP-100,2013-10-14 05:43:00,
2013-10-14 01:48:00,51.3,50.0,30.41,SE,135,0.0,0.0,95,0.00,,,0.00,Rainwise IP-100,2013-10-14 05:48:00,
2013-10-14 01:53:00,51.4,50.0,30.40,SE,135,1.0,2.0,96,0.00,,,0.00,Rainwise IP-100,2013-10-14 05:53:00,
2013-10-14 01:58:00,51.5,50.0,30.40,SE,135,0.0,2.0,96,0.00,,,0.00,Rainwise IP-100,2013-10-14 05:58:00,
2013-10-14 02:03:00,51.5,50.0,30.40,SE,135,0.0,2.0,95,0.00,,,0.00,Rainwise IP-100,2013-10-14 06:03:00,
2013-10-14 02:08:00,51.5,50.0,30.40,SE,135,0.0,0.0,96,0.00,,,0.00,Rainwise IP-100,2013-10-14 06:08:00,
2013-10-14 02:13:00,51.6,50.0,30.40,SE,135,0.0,0.0,95,0.00,,,0.00,Rainwise IP-100,2013-10-14 06:13:00,
2013-10-14 02:20:00,51.4,50.0,30.39,SE,135,0.0,0.0,96,0.00,,,0.00,Rainwise IP-100,2013-10-14 06:20:00,
2013-10-14 02:25:00,51.4,50.0,30.40,SE,135,0.0,0.0,96,0.00,,,0.00,Rainwise IP-100,2013-10-14 06:25:00,
2013-10-14 02:30:00,51.5,50.0,30.40,SE,135,0.0,0.0,96,0.00,,,0.00,Rainwise IP-100,2013-10-14 06:30:00,
2013-10-14 02:35:00,51.5,50.0,30.39,SE,135,0.0,0.0,96,0.00,,,0.00,Rainwise IP-100,2013-10-14 06:35:00,
2013-10-14 02:40:00,51.6,50.0,30.39,SE,135,0.0,0.0,96,0.00,,,0.00,Rainwise IP-100,2013-10-14 06:40:00,
2013-10-14 02:45:00,51.6,50.0,30.39,SE,135,0.0,0.0,96,0.00,,,0.00,Rainwise IP-100,2013-10-14 06:45:00,
2013-10-14 02:50:00,51.6,50.0,30.39,SE,135,0.0,0.0,96,0.00,,,0.00,Rainwise IP-100,2013-10-14 06:50:00,
2013-10-14 02:55:00,51.6,51.0,30.39,SE,135,0.0,0.0,97,0.00,,,0.00,Rainwise IP-100,2013-10-14 06:55:00,
2013-10-14 03:00:00,51.6,50.0,30.39,SE,135,0.0,0.0,96,0.00,,,0.00,Rainwise IP-100,2013-10-14 07:00:00,
2013-10-14 03:06:00,51.6,50.0,30.39,SE,135,0.0,0.0,96,0.00,,,0.00,Rainwise IP-100,2013-10-14 07:06:00,
2013-10-14 03:11:00,51.7,51.0,30.39,SE,135,0.0,0.0,97,0.00,,,0.00,Rainwise IP-100,2013-10-14 07:11:00,
2013-10-14 03:18:00,51.8,51.0,30.39,SE,135,0.0,2.0,97,0.00,,,0.00,Rainwise IP-100,2013-10-14 07:18:00,
2013-10-14 03:23:00,51.8,51.0,30.38,SE,135,0.0,0.0,97,0.00,,,0.00,Rainwise IP-100,2013-10-14 07:23:00,
2013-10-14 03:28:00,51.8,51.0,30.38,SE,135,0.0,0.0,97,0.00,,,0.00,Rainwise IP-100,2013-10-14 07:28:00,
2013-10-14 03:33:00,51.8,51.0,30.38,SE,135,1.0,2.0,97,0.00,,,0.00,Rainwise IP-100,2013-10-14 07:33:00,
2013-10-14 03:38:00,51.8,51.0,30.38,SE,135,0.0,2.0,97,0.00,,,0.00,Rainwise IP-100,2013-10-14 07:38:00,
2013-10-14 03:43:00,51.8,51.0,30.38,SE,135,0.0,0.0,97,0.00,,,0.00,Rainwise IP-100,2013-10-14 07:43:00,
2013-10-14 03:48:00,51.8,51.0,30.38,SE,135,0.0,0.0,97,0.00,,,0.00,Rainwise IP-100,2013-10-14 07:48:00,
2013-10-14 03:53:00,51.7,51.0,30.38,SE,135,2.0,2.0,97,0.00,,,0.00,Rainwise IP-100,2013-10-14 07:53:00,
2013-10-14 03:58:00,51.7,51.0,30.39,SE,135,0.0,2.0,97,0.00,,,0.00,Rainwise IP-100,2013-10-14 07:58:00,
2013-10-14 04:03:00,51.6,51.0,30.39,SE,135,0.0,0.0,97,0.00,,,0.00,Rainwise IP-100,2013-10-14 08:03:00,
2013-10-14 04:08:00,51.6,51.0,30.39,SE,135,0.0,0.0,97,0.00,,,0.00,Rainwise IP-100,2013-10-14 08:08:00,
2013-10-14 04:13:00,51.5,51.0,30.39,SE,135,0.0,0.0,97,0.00,,,0.00,Rainwise IP-100,2013-10-14 08:13:00,
2013-10-14 04:19:00,51.4,50.0,30.39,SE,135,0.0,0.0,97,0.00,,,0.00,Rainwise IP-100,2013-10-14 08:19:00,
2013-10-14 04:24:00,51.4,50.0,30.39,SE,135,0.0,0.0,97,0.00,,,0.00,Rainwise IP-100,2013-10-14 08:24:00,
2013-10-14 04:29:00,51.5,51.0,30.39,SE,135,0.0,0.0,97,0.00,,,0.00,Rainwise IP-100,2013-10-14 08:29:00,
2013-10-14 04:34:00,51.5,51.0,30.39,SE,135,0.0,0.0,97,0.06,,,0.01,Rainwise IP-100,2013-10-14 08:34:00,
2013-10-14 04:39:00,51.5,51.0,30.39,SE,135,0.0,0.0,97,0.06,,,0.01,Rainwise IP-100,2013-10-14 08:39:00,
2013-10-14 04:44:00,51.7,51.0,30.39,SE,135,0.0,0.0,97,0.00,,,0.01,Rainwise IP-100,2013-10-14 08:44:00,
2013-10-14 04:49:00,51.5,51.0,30.39,SE,135,0.0,2.0,97,0.00,,,0.01,Rainwise IP-100,2013-10-14 08:49:00,
2013-10-14 04:54:00,51.4,50.0,30.39,SE,135,0.0,0.0,97,0.00,,,0.01,Rainwise IP-100,2013-10-14 08:54:00,
2013-10-14 04:59:00,51.5,51.0,30.40,SE,135,0.0,0.0,97,0.00,,,0.01,Rainwise IP-100,2013-10-14 08:59:00,
2013-10-14 05:04:00,51.4,50.0,30.40,SE,135,0.0,0.0,97,0.00,,,0.01,Rainwise IP-100,2013-10-14 09:04:00,
2013-10-14 05:09:00,51.5,51.0,30.40,SW,225,0.0,2.0,97,0.00,,,0.01,Rainwise IP-100,2013-10-14 09:09:00,
2013-10-14 05:14:00,51.7,51.0,30.39,South,180,0.0,2.0,97,0.00,,,0.01,Rainwise IP-100,2013-10-14 09:14:00,
2013-10-14 05:20:00,51.7,51.0,30.40,South,180,0.0,1.0,97,0.00,,,0.01,Rainwise IP-100,2013-10-14 09:20:00,
2013-10-14 05:25:00,51.9,51.0,30.39,SSW,202,0.0,2.0,97,0.00,,,0.01,Rainwise IP-100,2013-10-14 09:25:00,
2013-10-14 05:30:00,52.1,51.0,30.39,West,270,1.0,5.0,97,0.00,,,0.01,Rainwise IP-100,2013-10-14 09:30:00,
2013-10-14 05:35:00,52.2,51.0,30.40,West,270,0.0,2.0,97,0.00,,,0.01,Rainwise IP-100,2013-10-14 09:35:00,
2013-10-14 05:40:00,52.1,51.0,30.40,West,270,0.0,0.0,97,0.00,,,0.01,Rainwise IP-100,2013-10-14 09:40:00,
2013-10-14 05:45:00,51.9,51.0,30.40,West,270,0.0,0.0,97,0.00,,,0.01,Rainwise IP-100,2013-10-14 09:45:00,
2013-10-14 05:50:00,51.9,51.0,30.39,West,270,0.0,2.0,97,0.00,,,0.01,Rainwise IP-100,2013-10-14 09:50:00,
2013-10-14 05:55:00,51.9,51.0,30.39,West,270,0.0,2.0,97,0.00,,,0.01,Rainwise IP-100,2013-10-14 09:55:00,
2013-10-14 06:00:00,51.9,51.0,30.39,West,270,0.0,0.0,97,0.00,,,0.01,Rainwise IP-100,2013-10-14 10:00:00,
2013-10-14 06:05:00,51.9,51.0,30.39,West,270,0.0,0.0,97,0.00,,,0.01,Rainwise IP-100,2013-10-14 10:05:00,
2013-10-14 06:10:00,51.8,51.0,30.39,West,270,0.0,0.0,97,0.00,,,0.01,Rainwise IP-100,2013-10-14 10:10:00,
2013-10-14 06:15:00,51.8,51.0,30.39,West,270,0.0,2.0,97,0.00,,,0.01,Rainwise IP-100,2013-10-14 10:15:00,
2013-10-14 06:21:00,51.8,51.0,30.39,West,270,0.0,2.0,97,0.00,,,0.01,Rainwise IP-100,2013-10-14 10:21:00,
2013-10-14 06:26:00,51.8,51.0,30.39,West,270,0.0,0.0,97,0.00,,,0.01,Rainwise IP-100,2013-10-14 10:26:00,
2013-10-14 06:31:00,51.8,51.0,30.40,West,270,0.0,0.0,97,0.00,,,0.01,Rainwise IP-100,2013-10-14 10:31:00,
2013-10-14 06:36:00,51.8,51.0,30.39,West,270,0.0,0.0,97,0.00,,,0.01,Rainwise IP-100,2013-10-14 10:36:00,
2013-10-14 06:41:00,51.7,51.0,30.39,West,270,0.0,0.0,97,0.00,,,0.01,Rainwise IP-100,2013-10-14 10:41:00,
2013-10-14 06:46:00,51.7,51.0,30.39,West,270,1.0,1.0,97,0.00,,,0.01,Rainwise IP-100,2013-10-14 10:46:00,
2013-10-14 06:51:00,51.8,51.0,30.39,West,270,0.0,1.0,97,0.00,,,0.01,Rainwise IP-100,2013-10-14 10:51:00,
2013-10-14 06:56:00,51.8,51.0,30.39,West,270,0.0,0.0,97,0.00,,,0.01,Rainwise IP-100,2013-10-14 10:56:00,
2013-10-14 07:01:00,51.9,51.0,30.39,West,270,0.0,0.0,97,0.00,,,0.01,Rainwise IP-100,2013-10-14 11:01:00,
2013-10-14 07:06:00,51.8,51.0,30.39,West,270,0.0,0.0,97,0.00,,,0.01,Rainwise IP-100,2013-10-14 11:06:00,
2013-10-14 07:11:00,51.7,51.0,30.39,West,270,0.0,0.0,97,0.00,,,0.01,Rainwise IP-100,2013-10-14 11:11:00,
2013-10-14 07:16:00,51.8,51.0,30.39,West,270,0.0,0.0,97,0.00,,,0.01,Rainwise IP-100,2013-10-14 11:16:00,
2013-10-14 07:22:00,51.8,51.0,30.39,West,270,0.0,0.0,97,0.00,,,0.01,Rainwise IP-100,2013-10-14 11:22:00,
2013-10-14 07:27:00,51.9,51.0,30.39,West,270,0.0,0.0,97,0.06,,,0.02,Rainwise IP-100,2013-10-14 11:27:00,
2013-10-14 07:32:00,51.9,51.0,30.39,West,270,0.0,0.0,97,0.06,,,0.02,Rainwise IP-100,2013-10-14 11:32:00,
2013-10-14 07:37:00,51.9,51.0,30.39,West,270,0.0,0.0,97,0.00,,,0.02,Rainwise IP-100,2013-10-14 11:37:00,
2013-10-14 07:42:00,51.9,51.0,30.39,West,270,0.0,0.0,97,0.06,,,0.03,Rainwise IP-100,2013-10-14 11:42:00,
2013-10-14 07:47:00,52.1,51.0,30.40,West,270,1.0,2.0,97,0.06,,,0.03,Rainwise IP-100,2013-10-14 11:47:00,
2013-10-14 07:52:00,52.2,51.0,30.39,West,270,0.0,2.0,97,0.06,,,0.04,Rainwise IP-100,2013-10-14 11:52:00,
2013-10-14 07:57:00,52.2,51.0,30.40,West,270,0.0,0.0,97,0.12,,,0.05,Rainwise IP-100,2013-10-14 11:57:00,
2013-10-14 08:02:00,52.3,51.0,30.40,North,360,1.0,2.0,97,0.12,,,0.06,Rainwise IP-100,2013-10-14 12:02:00,
2013-10-14 08:07:00,52.3,51.0,30.40,North,360,0.0,2.0,97,0.06,,,0.06,Rainwise IP-100,2013-10-14 12:07:00,
2013-10-14 08:12:00,52.3,51.0,30.40,North,360,0.0,0.0,97,0.00,,,0.06,Rainwise IP-100,2013-10-14 12:12:00,
2013-10-14 08:17:00,52.5,52.0,30.40,North,360,2.0,2.0,97,0.00,,,0.06,Rainwise IP-100,2013-10-14 12:17:00,
2013-10-14 08:23:00,52.5,52.0,30.40,NW,315,0.0,2.0,97,0.00,,,0.06,Rainwise IP-100,2013-10-14 12:23:00,
2013-10-14 08:28:00,52.5,52.0,30.40,NW,315,0.0,0.0,97,0.00,,,0.06,Rainwise IP-100,2013-10-14 12:28:00,
2013-10-14 08:33:00,52.5,52.0,30.40,NW,315,0.0,1.0,97,0.00,,,0.06,Rainwise IP-100,2013-10-14 12:33:00,
2013-10-14 08:38:00,52.5,52.0,30.40,NW,315,0.0,0.0,97,0.00,,,0.06,Rainwise IP-100,2013-10-14 12:38:00,
2013-10-14 08:43:00,52.6,52.0,30.41,NW,315,1.0,2.0,97,0.06,,,0.07,Rainwise IP-100,2013-10-14 12:43:00,
2013-10-14 08:48:00,52.6,52.0,30.41,NW,315,0.0,2.0,97,0.06,,,0.07,Rainwise IP-100,2013-10-14 12:48:00,
2013-10-14 08:53:00,52.7,52.0,30.41,NW,315,0.0,0.0,97,0.00,,,0.07,Rainwise IP-100,2013-10-14 12:53:00,
2013-10-14 08:58:00,52.8,52.0,30.41,NW,315,0.0,0.0,97,0.00,,,0.07,Rainwise IP-100,2013-10-14 12:58:00,
2013-10-14 09:03:00,52.8,52.0,30.41,NW,315,0.0,0.0,97,0.00,,,0.07,Rainwise IP-100,2013-10-14 13:03:00,
2013-10-14 09:08:00,52.8,52.0,30.41,NW,315,0.0,0.0,97,0.00,,,0.07,Rainwise IP-100,2013-10-14 13:08:00,
2013-10-14 09:13:00,52.9,52.0,30.41,NW,315,0.0,0.0,97,0.00,,,0.07,Rainwise IP-100,2013-10-14 13:13:00,
2013-10-14 09:18:00,53.1,52.0,30.41,NW,315,0.0,0.0,97,0.00,,,0.07,Rainwise IP-100,2013-10-14 13:18:00,
2013-10-14 09:24:00,53.1,52.0,30.41,NW,315,0.0,0.0,97,0.00,,,0.07,Rainwise IP-100,2013-10-14 13:24:00,
2013-10-14 09:29:00,53.2,52.0,30.41,NW,315,0.0,0.0,97,0.00,,,0.07,Rainwise IP-100,2013-10-14 13:29:00,
2013-10-14 09:34:00,53.2,52.0,30.41,NW,315,0.0,0.0,97,0.00,,,0.07,Rainwise IP-100,2013-10-14 13:34:00,
2013-10-14 09:39:00,53.3,52.0,30.41,NW,315,0.0,0.0,97,0.00,,,0.07,Rainwise IP-100,2013-10-14 13:39:00,
2013-10-14 09:44:00,53.4,53.0,30.41,NW,315,0.0,0.0,97,0.00,,,0.07,Rainwise IP-100,2013-10-14 13:44:00,
2013-10-14 09:49:00,53.4,53.0,30.41,NW,315,0.0,0.0,97,0.06,,,0.08,Rainwise IP-100,2013-10-14 13:49:00,
2013-10-14 09:54:00,53.6,53.0,30.41,NW,315,0.0,0.0,97,0.06,,,0.08,Rainwise IP-100,2013-10-14 13:54:00,
2013-10-14 09:59:00,53.7,53.0,30.41,NW,315,0.0,0.0,97,0.00,,,0.08,Rainwise IP-100,2013-10-14 13:59:00,
2013-10-14 10:04:00,53.9,53.0,30.41,NW,315,0.0,0.0,97,0.06,,,0.09,Rainwise IP-100,2013-10-14 14:04:00,
2013-10-14 10:09:00,54.1,53.0,30.41,NW,315,0.0,0.0,97,0.12,,,0.10,Rainwise IP-100,2013-10-14 14:09:00,
2013-10-14 10:14:00,54.3,53.0,30.41,NW,315,0.0,0.0,97,0.06,,,0.10,Rainwise IP-100,2013-10-14 14:14:00,
2013-10-14 10:19:00,54.4,54.0,30.41,NW,315,0.0,0.0,97,0.00,,,0.10,Rainwise IP-100,2013-10-14 14:19:00,
2013-10-14 10:25:00,54.4,54.0,30.41,NW,315,1.0,0.0,97,0.06,,,0.11,Rainwise IP-100,2013-10-14 14:25:00,
2013-10-14 10:30:00,54.3,53.0,30.41,NW,315,0.0,1.0,97,0.06,,,0.11,Rainwise IP-100,2013-10-14 14:30:00,
2013-10-14 10:35:00,54.3,53.0,30.41,NW,315,0.0,0.0,97,0.06,,,0.12,Rainwise IP-100,2013-10-14 14:35:00,
2013-10-14 10:40:00,54.5,54.0,30.41,NW,315,0.0,1.0,97,0.06,,,0.12,Rainwise IP-100,2013-10-14 14:40:00,
2013-10-14 10:45:00,54.4,54.0,30.41,NW,315,0.0,0.0,97,0.00,,,0.12,Rainwise IP-100,2013-10-14 14:45:00,
2013-10-14 10:50:00,54.6,54.0,30.41,NW,315,0.0,0.0,97,0.00,,,0.12,Rainwise IP-100,2013-10-14 14:50:00,
2013-10-14 10:55:00,54.6,54.0,30.41,NW,315,0.0,1.0,97,0.00,,,0.12,Rainwise IP-100,2013-10-14 14:55:00,
2013-10-14 11:00:00,54.7,54.0,30.41,NW,315,0.0,0.0,97,0.00,,,0.12,Rainwise IP-100,2013-10-14 15:00:00,
2013-10-14 11:05:00,54.7,54.0,30.41,NW,315,0.0,0.0,97,0.00,,,0.12,Rainwise IP-100,2013-10-14 15:05:00,
2013-10-14 11:10:00,54.8,54.0,30.41,NW,315,0.0,0.0,97,0.00,,,0.12,Rainwise IP-100,2013-10-14 15:10:00,
2013-10-14 11:15:00,54.7,54.0,30.41,NW,315,0.0,2.0,97,0.06,,,0.13,Rainwise IP-100,2013-10-14 15:15:00,
2013-10-14 11:20:00,54.7,54.0,30.41,North,360,2.0,2.0,97,0.12,,,0.14,Rainwise IP-100,2013-10-14 15:20:00,
2013-10-14 11:26:00,54.8,54.0,30.41,North,360,2.0,2.0,97,0.06,,,0.14,Rainwise IP-100,2013-10-14 15:26:00,
2013-10-14 11:31:00,54.9,54.0,30.41,NNW,337,0.0,2.0,97,0.06,,,0.15,Rainwise IP-100,2013-10-14 15:31:00,
2013-10-14 11:36:00,54.9,54.0,30.41,NE,45,2.0,2.0,97,0.06,,,0.15,Rainwise IP-100,2013-10-14 15:36:00,
2013-10-14 11:41:00,54.9,54.0,30.41,NW,315,0.0,2.0,97,0.06,,,0.16,Rainwise IP-100,2013-10-14 15:41:00,
2013-10-14 11:46:00,54.9,54.0,30.41,NW,315,0.0,1.0,97,0.06,,,0.16,Rainwise IP-100,2013-10-14 15:46:00,
2013-10-14 11:51:00,55.0,54.0,30.41,NW,315,0.0,0.0,97,0.00,,,0.16,Rainwise IP-100,2013-10-14 15:51:00,
2013-10-14 11:56:00,55.1,54.0,30.40,NW,315,0.0,0.0,97,0.00,,,0.16,Rainwise IP-100,2013-10-14 15:56:00,
2013-10-14 12:01:00,55.3,54.0,30.40,NW,315,0.0,0.0,97,0.00,,,0.16,Rainwise IP-100,2013-10-14 16:01:00,
2013-10-14 12:06:00,55.3,54.0,30.40,WSW,247,2.0,2.0,97,0.00,,,0.16,Rainwise IP-100,2013-10-14 16:06:00,
2013-10-14 12:11:00,55.4,54.0,30.40,SW,225,3.0,4.0,97,0.00,,,0.16,Rainwise IP-100,2013-10-14 16:11:00,
2013-10-14 12:16:00,55.3,54.0,30.40,South,180,2.0,4.0,97,0.00,,,0.16,Rainwise IP-100,2013-10-14 16:16:00,
2013-10-14 12:21:00,55.3,54.0,30.40,WSW,247,2.0,3.0,97,0.00,,,0.16,Rainwise IP-100,2013-10-14 16:21:00,
2013-10-14 12:27:00,55.2,54.0,30.40,West,270,1.0,2.0,97,0.00,,,0.16,Rainwise IP-100,2013-10-14 16:27:00,
2013-10-14 12:32:00,55.3,54.0,30.40,NW,315,0.0,2.0,97,0.00,,,0.16,Rainwise IP-100,2013-10-14 16:32:00,
2013-10-14 12:37:00,55.3,54.0,30.39,NW,315,0.0,2.0,97,0.00,,,0.16,Rainwise IP-100,2013-10-14 16:37:00,
2013-10-14 12:42:00,55.4,54.0,30.39,NW,315,1.0,3.0,97,0.00,,,0.17,Rainwise IP-100,2013-10-14 16:42:00,
2013-10-14 12:47:00,55.3,54.0,30.39,West,270,0.0,3.0,97,0.06,,,0.17,Rainwise IP-100,2013-10-14 16:47:00,
2013-10-14 12:52:00,55.3,54.0,30.39,West,270,0.0,0.0,97,0.06,,,0.17,Rainwise IP-100,2013-10-14 16:52:00,
2013-10-14 12:57:00,55.4,54.0,30.39,West,270,0.0,0.0,97,0.00,,,0.17,Rainwise IP-100,2013-10-14 16:57:00,
2013-10-14 13:02:00,55.5,55.0,30.39,West,270,0.0,0.0,97,0.00,,,0.17,Rainwise IP-100,2013-10-14 17:02:00,
2013-10-14 13:07:00,55.6,55.0,30.39,NW,315,0.0,2.0,97,0.00,,,0.17,Rainwise IP-100,2013-10-14 17:07:00,
2013-10-14 13:12:00,55.7,55.0,30.38,North,360,0.0,2.0,97,0.00,,,0.17,Rainwise IP-100,2013-10-14 17:12:00,
2013-10-14 13:17:00,55.9,55.0,30.38,NNW,337,1.0,2.0,97,0.00,,,0.17,Rainwise IP-100,2013-10-14 17:17:00,
2013-10-14 13:22:00,55.9,55.0,30.38,North,360,0.0,2.0,97,0.00,,,0.17,Rainwise IP-100,2013-10-14 17:22:00,
2013-10-14 13:28:00,55.7,55.0,30.38,NW,315,1.0,3.0,97,0.00,,,0.17,Rainwise IP-100,2013-10-14 17:28:00,
2013-10-14 13:33:00,55.6,55.0,30.38,West,270,2.0,2.0,97,0.00,,,0.17,Rainwise IP-100,2013-10-14 17:33:00,
2013-10-14 13:38:00,55.5,55.0,30.38,West,270,0.0,2.0,97,0.00,,,0.17,Rainwise IP-100,2013-10-14 17:38:00,
2013-10-14 13:43:00,55.4,54.0,30.38,West,270,0.0,2.0,97,0.00,,,0.17,Rainwise IP-100,2013-10-14 17:43:00,
2013-10-14 13:48:00,55.5,55.0,30.38,West,270,0.0,2.0,97,0.00,,,0.17,Rainwise IP-100,2013-10-14 17:48:00,
2013-10-14 13:53:00,55.6,55.0,30.38,West,270,1.0,0.0,97,0.00,,,0.17,Rainwise IP-100,2013-10-14 17:53:00,
2013-10-14 13:58:00,55.6,55.0,30.38,West,270,0.0,2.0,97,0.00,,,0.17,Rainwise IP-100,2013-10-14 17:58:00,
2013-10-14 14:03:00,55.6,55.0,30.38,West,270,0.0,2.0,97,0.00,,,0.17,Rainwise IP-100,2013-10-14 18:03:00,
2013-10-14 14:08:00,55.7,55.0,30.38,West,270,0.0,2.0,97,0.00,,,0.17,Rainwise IP-100,2013-10-14 18:08:00,
2013-10-14 14:13:00,55.6,55.0,30.38,West,270,0.0,0.0,97,0.00,,,0.17,Rainwise IP-100,2013-10-14 18:13:00,
2013-10-14 14:18:00,55.6,55.0,30.38,West,270,1.0,2.0,97,0.00,,,0.17,Rainwise IP-100,2013-10-14 18:18:00,
2013-10-14 14:23:00,55.6,55.0,30.38,West,270,1.0,2.0,97,0.00,,,0.17,Rainwise IP-100,2013-10-14 18:23:00,
2013-10-14 14:29:00,55.5,55.0,30.38,West,270,0.0,2.0,97,0.00,,,0.17,Rainwise IP-100,2013-10-14 18:29:00,
2013-10-14 14:34:00,55.4,54.0,30.38,West,270,1.0,2.0,97,0.00,,,0.17,Rainwise IP-100,2013-10-14 18:34:00,
2013-10-14 14:39:00,55.5,55.0,30.37,West,270,2.0,2.0,97,0.00,,,0.17,Rainwise IP-100,2013-10-14 18:39:00,
2013-10-14 14:44:00,55.5,55.0,30.37,West,270,0.0,2.0,97,0.00,,,0.17,Rainwise IP-100,2013-10-14 18:44:00,
2013-10-14 14:49:00,55.5,55.0,30.38,SW,225,0.0,2.0,97,0.00,,,0.17,Rainwise IP-100,2013-10-14 18:49:00,
2013-10-14 14:54:00,55.4,54.0,30.38,SW,225,0.0,2.0,97,0.00,,,0.17,Rainwise IP-100,2013-10-14 18:54:00,
2013-10-14 14:59:00,55.4,54.0,30.38,West,270,0.0,2.0,97,0.00,,,0.17,Rainwise IP-100,2013-10-14 18:59:00,
2013-10-14 15:04:00,55.4,54.0,30.38,West,270,0.0,1.0,97,0.00,,,0.17,Rainwise IP-100,2013-10-14 19:04:00,
2013-10-14 15:09:00,55.3,54.0,30.38,NE,45,1.0,0.0,97,0.00,,,0.17,Rainwise IP-100,2013-10-14 19:09:00,
2013-10-14 15:14:00,55.3,54.0,30.37,NE,45,0.0,2.0,97,0.00,,,0.17,Rainwise IP-100,2013-10-14 19:14:00,
2013-10-14 15:19:00,55.3,54.0,30.38,NE,45,0.0,1.0,97,0.00,,,0.17,Rainwise IP-100,2013-10-14 19:19:00,
2013-10-14 15:24:00,55.3,54.0,30.38,NE,45,2.0,2.0,97,0.00,,,0.17,Rainwise IP-100,2013-10-14 19:24:00,
2013-10-14 15:30:00,55.1,54.0,30.37,NW,315,2.0,2.0,97,0.00,,,0.17,Rainwise IP-100,2013-10-14 19:30:00,
2013-10-14 15:35:00,55.1,54.0,30.37,NW,315,1.0,2.0,97,0.00,,,0.17,Rainwise IP-100,2013-10-14 19:35:00,
2013-10-14 15:40:00,55.1,54.0,30.37,North,360,1.0,2.0,97,0.00,,,0.17,Rainwise IP-100,2013-10-14 19:40:00,
2013-10-14 15:45:00,54.9,54.0,30.37,NW,315,2.0,2.0,97,0.00,,,0.17,Rainwise IP-100,2013-10-14 19:45:00,
2013-10-14 15:50:00,54.9,54.0,30.38,NW,315,1.0,2.0,97,0.00,,,0.17,Rainwise IP-100,2013-10-14 19:50:00,
2013-10-14 15:55:00,54.9,54.0,30.38,NW,315,0.0,2.0,97,0.00,,,0.17,Rainwise IP-100,2013-10-14 19:55:00,
2013-10-14 16:00:00,54.9,54.0,30.38,NE,45,0.0,2.0,97,0.00,,,0.17,Rainwise IP-100,2013-10-14 20:00:00,
2013-10-14 16:05:00,54.8,54.0,30.38,North,360,0.0,2.0,97,0.00,,,0.17,Rainwise IP-100,2013-10-14 20:05:00,
2013-10-14 16:10:00,54.7,54.0,30.37,North,360,0.0,0.0,97,0.00,,,0.17,Rainwise IP-100,2013-10-14 20:10:00,
2013-10-14 16:15:00,54.7,54.0,30.37,North,360,0.0,0.0,97,0.00,,,0.17,Rainwise IP-100,2013-10-14 20:15:00,
2013-10-14 16:20:00,54.7,54.0,30.37,North,360,0.0,0.0,97,0.00,,,0.17,Rainwise IP-100,2013-10-14 20:20:00,
2013-10-14 16:25:00,54.7,54.0,30.37,North,360,0.0,0.0,97,0.00,,,0.17,Rainwise IP-100,2013-10-14 20:25:00,
2013-10-14 16:31:00,54.7,54.0,30.37,North,360,0.0,0.0,97,0.00,,,0.17,Rainwise IP-100,2013-10-14 20:31:00,
2013-10-14 16:36:00,54.6,54.0,30.37,North,360,0.0,2.0,97,0.00,,,0.17,Rainwise IP-100,2013-10-14 20:36:00,
2013-10-14 16:41:00,54.6,54.0,30.37,West,270,0.0,1.0,97,0.00,,,0.17,Rainwise IP-100,2013-10-14 20:41:00,
2013-10-14 16:46:00,54.6,54.0,30.37,West,270,0.0,0.0,97,0.00,,,0.17,Rainwise IP-100,2013-10-14 20:46:00,
2013-10-14 16:51:00,54.5,54.0,30.38,West,270,2.0,3.0,97,0.00,,,0.17,Rainwise IP-100,2013-10-14 20:51:00,
2013-10-14 16:56:00,54.5,54.0,30.38,West,270,0.0,2.0,97,0.00,,,0.17,Rainwise IP-100,2013-10-14 20:56:00,
2013-10-14 17:01:00,54.4,54.0,30.38,West,270,0.0,0.0,97,0.00,,,0.17,Rainwise IP-100,2013-10-14 21:01:00,
2013-10-14 17:04:00,54.6,54.0,30.38,West,270,0.0,0.0,97,0.00,,,0.17,Rainwise IP-100,2013-10-14 21:04:00,
2013-10-14 17:09:00,54.6,54.0,30.38,West,270,0.0,0.0,97,0.00,,,0.17,Rainwise IP-100,2013-10-14 21:09:00,
2013-10-14 17:14:00,54.6,54.0,30.38,South,180,1.0,2.0,97,0.00,,,0.17,Rainwise IP-100,2013-10-14 21:14:00,
2013-10-14 17:19:00,54.6,54.0,30.37,South,180,2.0,2.0,97,0.00,,,0.17,Rainwise IP-100,2013-10-14 21:19:00,
2013-10-14 17:24:00,54.6,54.0,30.38,South,180,2.0,2.0,97,0.00,,,0.17,Rainwise IP-100,2013-10-14 21:24:00,
2013-10-14 17:30:00,54.6,54.0,30.37,South,180,1.0,2.0,97,0.00,,,0.17,Rainwise IP-100,2013-10-14 21:30:00,
2013-10-14 17:35:00,54.6,54.0,30.37,South,180,0.0,2.0,97,0.00,,,0.17,Rainwise IP-100,2013-10-14 21:35:00,
2013-10-14 17:40:00,54.6,54.0,30.37,South,180,1.0,2.0,97,0.00,,,0.17,Rainwise IP-100,2013-10-14 21:40:00,
2013-10-14 17:45:00,54.6,54.0,30.37,South,180,1.0,2.0,97,0.00,,,0.17,Rainwise IP-100,2013-10-14 21:45:00,
2013-10-14 17:50:00,54.6,54.0,30.37,South,180,0.0,2.0,97,0.00,,,0.17,Rainwise IP-100,2013-10-14 21:50:00,
2013-10-14 17:55:00,54.4,54.0,30.38,South,180,0.0,0.0,97,0.00,,,0.17,Rainwise IP-100,2013-10-14 21:55:00,
2013-10-14 18:00:00,54.4,54.0,30.38,South,180,0.0,0.0,97,0.00,,,0.17,Rainwise IP-100,2013-10-14 22:00:00,
2013-10-14 18:05:00,54.4,54.0,30.38,South,180,0.0,0.0,97,0.00,,,0.17,Rainwise IP-100,2013-10-14 22:05:00,
2013-10-14 18:10:00,54.3,53.0,30.38,South,180,0.0,0.0,97,0.00,,,0.17,Rainwise IP-100,2013-10-14 22:10:00,
2013-10-14 18:15:00,54.3,53.0,30.38,South,180,0.0,0.0,97,0.00,,,0.17,Rainwise IP-100,2013-10-14 22:15:00,
2013-10-14 18:20:00,54.3,53.0,30.39,South,180,0.0,0.0,97,0.00,,,0.17,Rainwise IP-100,2013-10-14 22:20:00,
2013-10-14 18:25:00,54.3,53.0,30.39,South,180,0.0,0.0,97,0.00,,,0.17,Rainwise IP-100,2013-10-14 22:25:00,
2013-10-14 18:31:00,54.2,53.0,30.39,South,180,0.0,2.0,97,0.00,,,0.17,Rainwise IP-100,2013-10-14 22:31:00,
2013-10-14 18:36:00,54.2,53.0,30.40,South,180,0.0,1.0,97,0.06,,,0.18,Rainwise IP-100,2013-10-14 22:36:00,
2013-10-14 18:41:00,54.2,53.0,30.40,South,180,0.0,1.0,97,0.06,,,0.18,Rainwise IP-100,2013-10-14 22:41:00,
2013-10-14 18:46:00,54.2,53.0,30.41,South,180,2.0,2.0,97,0.00,,,0.18,Rainwise IP-100,2013-10-14 22:46:00,
2013-10-14 18:51:00,54.2,53.0,30.41,South,180,2.0,2.0,97,0.00,,,0.18,Rainwise IP-100,2013-10-14 22:51:00,
2013-10-14 18:56:00,54.2,53.0,30.41,SE,135,0.0,3.0,97,0.00,,,0.18,Rainwise IP-100,2013-10-14 22:56:00,
2013-10-14 19:01:00,54.2,53.0,30.41,SE,135,1.0,2.0,97,0.00,,,0.18,Rainwise IP-100,2013-10-14 23:01:00,
2013-10-14 19:06:00,54.1,53.0,30.41,SE,135,0.0,2.0,97,0.00,,,0.18,Rainwise IP-100,2013-10-14 23:06:00,
2013-10-14 19:11:00,54.1,53.0,30.41,SE,135,0.0,0.0,97,0.00,,,0.18,Rainwise IP-100,2013-10-14 23:11:00,
2013-10-14 19:16:00,53.9,53.0,30.41,SE,135,0.0,0.0,97,0.00,,,0.18,Rainwise IP-100,2013-10-14 23:16:00,
2013-10-14 19:21:00,53.7,53.0,30.42,SE,135,0.0,0.0,97,0.00,,,0.18,Rainwise IP-100,2013-10-14 23:21:00,
2013-10-14 19:26:00,53.4,53.0,30.42,SE,135,0.0,2.0,97,0.00,,,0.18,Rainwise IP-100,2013-10-14 23:26:00,
2013-10-14 19:32:00,53.2,52.0,30.41,SE,135,0.0,1.0,97,0.00,,,0.18,Rainwise IP-100,2013-10-14 23:32:00,
2013-10-14 19:37:00,53.0,52.0,30.41,SE,135,0.0,0.0,97,0.00,,,0.18,Rainwise IP-100,2013-10-14 23:37:00,
2013-10-14 19:42:00,52.8,52.0,30.41,SE,135,0.0,0.0,97,0.00,,,0.18,Rainwise IP-100,2013-10-14 23:42:00,
2013-10-14 19:47:00,52.4,51.0,30.41,SE,135,0.0,0.0,97,0.00,,,0.18,Rainwise IP-100,2013-10-14 23:47:00,
2013-10-14 19:52:00,51.9,51.0,30.41,SE,135,0.0,0.0,97,0.00,,,0.18,Rainwise IP-100,2013-10-14 23:52:00,
2013-10-14 19:57:00,51.7,51.0,30.41,SE,135,0.0,0.0,97,0.00,,,0.18,Rainwise IP-100,2013-10-14 23:57:00,
2013-10-14 20:02:00,51.4,50.0,30.41,SE,135,0.0,0.0,97,0.00,,,0.18,Rainwise IP-100,2013-10-15 00:02:00,
2013-10-14 20:07:00,51.1,50.0,30.41,SE,135,0.0,0.0,97,0.00,,,0.18,Rainwise IP-100,2013-10-15 00:07:00,
2013-10-14 20:12:00,50.9,50.0,30.41,SE,135,0.0,0.0,97,0.00,,,0.18,Rainwise IP-100,2013-10-15 00:12:00,
2013-10-14 20:17:00,50.6,50.0,30.41,SE,135,0.0,0.0,97,0.00,,,0.18,Rainwise IP-100,2013-10-15 00:17:00,
2013-10-14 20:22:00,50.3,49.0,30.41,SE,135,0.0,0.0,97,0.00,,,0.18,Rainwise IP-100,2013-10-15 00:22:00,
2013-10-14 20:27:00,49.9,49.0,30.41,SE,135,0.0,0.0,97,0.00,,,0.18,Rainwise IP-100,2013-10-15 00:27:00,
2013-10-14 20:33:00,49.5,49.0,30.41,SE,135,0.0,0.0,97,0.00,,,0.18,Rainwise IP-100,2013-10-15 00:33:00,
2013-10-14 20:38:00,49.2,48.0,30.41,SE,135,0.0,0.0,97,0.00,,,0.18,Rainwise IP-100,2013-10-15 00:38:00,
2013-10-14 20:43:00,48.8,48.0,30.41,SE,135,0.0,0.0,97,0.00,,,0.18,Rainwise IP-100,2013-10-15 00:43:00,
2013-10-14 20:48:00,48.7,48.0,30.41,SE,135,0.0,0.0,97,0.00,,,0.18,Rainwise IP-100,2013-10-15 00:48:00,
2013-10-14 20:53:00,48.7,48.0,30.41,SE,135,0.0,0.0,97,0.00,,,0.18,Rainwise IP-100,2013-10-15 00:53:00,
2013-10-14 20:58:00,48.5,48.0,30.41,SE,135,0.0,0.0,97,0.00,,,0.18,Rainwise IP-100,2013-10-15 00:58:00,
2013-10-14 21:03:00,48.2,47.0,30.40,SE,135,0.0,0.0,97,0.00,,,0.18,Rainwise IP-100,2013-10-15 01:03:00,
2013-10-14 21:08:00,47.9,47.0,30.40,SE,135,0.0,0.0,97,0.00,,,0.18,Rainwise IP-100,2013-10-15 01:08:00,
2013-10-14 21:13:00,48.0,47.0,30.41,SE,135,0.0,0.0,97,0.00,,,0.18,Rainwise IP-100,2013-10-15 01:13:00,
2013-10-14 21:18:00,47.8,47.0,30.41,SE,135,0.0,0.0,97,0.00,,,0.18,Rainwise IP-100,2013-10-15 01:18:00,
2013-10-14 21:23:00,47.7,47.0,30.41,SE,135,0.0,1.0,97,0.00,,,0.18,Rainwise IP-100,2013-10-15 01:23:00,
2013-10-14 21:28:00,47.5,47.0,30.40,SE,135,0.0,2.0,97,0.00,,,0.18,Rainwise IP-100,2013-10-15 01:28:00,
2013-10-14 21:34:00,47.2,46.0,30.40,SE,135,0.0,0.0,97,0.00,,,0.18,Rainwise IP-100,2013-10-15 01:34:00,
2013-10-14 21:39:00,46.9,46.0,30.40,SE,135,0.0,0.0,97,0.00,,,0.18,Rainwise IP-100,2013-10-15 01:39:00,
2013-10-14 21:44:00,46.7,46.0,30.39,SE,135,0.0,0.0,97,0.00,,,0.18,Rainwise IP-100,2013-10-15 01:44:00,
2013-10-14 21:49:00,46.3,45.0,30.39,SE,135,0.0,0.0,97,0.00,,,0.18,Rainwise IP-100,2013-10-15 01:49:00,
2013-10-14 21:54:00,46.4,45.0,30.40,SE,135,0.0,0.0,97,0.00,,,0.18,Rainwise IP-100,2013-10-15 01:54:00,
2013-10-14 21:59:00,46.2,45.0,30.40,SE,135,0.0,0.0,97,0.00,,,0.18,Rainwise IP-100,2013-10-15 01:59:00,
2013-10-14 22:04:00,45.9,45.0,30.40,SE,135,0.0,0.0,97,0.00,,,0.18,Rainwise IP-100,2013-10-15 02:04:00,
2013-10-14 22:09:00,45.7,45.0,30.39,SE,135,0.0,0.0,97,0.00,,,0.18,Rainwise IP-100,2013-10-15 02:09:00,
2013-10-14 22:14:00,45.2,44.0,30.39,SE,135,0.0,0.0,97,0.00,,,0.18,Rainwise IP-100,2013-10-15 02:14:00,
2013-10-14 22:19:00,44.9,44.0,30.39,SE,135,0.0,0.0,96,0.00,,,0.18,Rainwise IP-100,2013-10-15 02:19:00,
2013-10-14 22:24:00,44.6,44.0,30.39,SE,135,0.0,0.0,96,0.00,,,0.18,Rainwise IP-100,2013-10-15 02:24:00,
2013-10-14 22:29:00,44.5,44.0,30.39,SE,135,0.0,0.0,96,0.00,,,0.18,Rainwise IP-100,2013-10-15 02:29:00,
2013-10-14 22:35:00,44.9,44.0,30.39,SE,135,0.0,0.0,96,0.00,,,0.18,Rainwise IP-100,2013-10-15 02:35:00,
2013-10-14 22:40:00,45.2,44.0,30.39,SE,135,0.0,0.0,97,0.00,,,0.18,Rainwise IP-100,2013-10-15 02:40:00,
2013-10-14 22:45:00,45.2,44.0,30.39,SE,135,0.0,0.0,97,0.00,,,0.18,Rainwise IP-100,2013-10-15 02:45:00,
2013-10-14 22:50:00,45.1,44.0,30.39,SE,135,0.0,2.0,97,0.00,,,0.18,Rainwise IP-100,2013-10-15 02:50:00,
2013-10-14 22:55:00,45.0,44.0,30.39,SE,135,0.0,0.0,97,0.00,,,0.18,Rainwise IP-100,2013-10-15 02:55:00,
2013-10-14 23:00:00,45.2,44.0,30.39,SE,135,0.0,0.0,97,0.00,,,0.18,Rainwise IP-100,2013-10-15 03:00:00,
2013-10-14 23:05:00,45.3,44.0,30.39,SE,135,0.0,0.0,97,0.00,,,0.18,Rainwise IP-100,2013-10-15 03:05:00,
2013-10-14 23:10:00,45.4,44.0,30.39,SE,135,0.0,0.0,97,0.00,,,0.18,Rainwise IP-100,2013-10-15 03:10:00,
2013-10-14 23:15:00,45.4,44.0,30.39,SE,135,0.0,0.0,97,0.00,,,0.18,Rainwise IP-100,2013-10-15 03:15:00,
2013-10-14 23:20:00,45.4,44.0,30.39,SE,135,0.0,0.0,97,0.00,,,0.18,Rainwise IP-100,2013-10-15 03:20:00,
2013-10-14 23:25:00,45.4,44.0,30.39,SE,135,0.0,0.0,97,0.00,,,0.18,Rainwise IP-100,2013-10-15 03:25:00,
2013-10-14 23:30:00,45.5,45.0,30.39,SE,135,0.0,0.0,97,0.00,,,0.18,Rainwise IP-100,2013-10-15 03:30:00,
2013-10-14 23:36:00,45.6,45.0,30.39,SE,135,0.0,0.0,97,0.00,,,0.18,Rainwise IP-100,2013-10-15 03:36:00,
2013-10-14 23:41:00,45.8,45.0,30.39,SE,135,0.0,0.0,97,0.00,,,0.18,Rainwise IP-100,2013-10-15 03:41:00,
2013-10-14 23:46:00,45.8,45.0,30.39,SE,135,0.0,0.0,97,0.00,,,0.18,Rainwise IP-100,2013-10-15 03:46:00,
2013-10-14 23:51:00,45.8,45.0,30.39,SE,135,0.0,0.0,97,0.00,,,0.18,Rainwise IP-100,2013-10-15 03:51:00,
2013-10-14 23:56:00,45.6,45.0,30.39,SE,135,0.0,0.0,97,0.00,,,0.18,Rainwise IP-100,2013-10-15 03:56:00,